Location: DARK SKY Beskydy - Park tmavé oblohy, www.darkskybeskydy.cz
(49.4926°N, 18.5016°E)
Time: 06:23:26
(UTC+02:00)

TIGRISAT - Pass Details

Date: 11 August 2024
Orbit: 591 x 667 km, 97.7° (Epoch: 19 September)

Event Time Altitude Azimuth Distance (km) Brightness Sun altitude
Rises 03:51:34 0° 149° (SSE) 2,923 ? -14.1°
Reaches altitude 10° 03:53:50 10° 143° (SE) 2,006 ? -13.9°
Maximum altitude 03:58:00 47° 70° (ENE) 827 ? -13.4°
Drops below altitude 10° 04:02:08 10° 357° (N) 1,976 ? -12.9°
Sets 04:04:21 0° 352° (N) 2,874 ? -12.6°
